[[{"header":{"parameterUnit":"m.s-1","parameterCategory":1,"la1":30.2991,"la2":30.254,"lo1":-89.0895,"lo2":-89.0444,"dy":0.0017,"dx":0.0017,"nx":28,"ny":28,"refTime":"2025-05-27T03:00:00:Z","depth":0,"parameterNumber":2,"parameterNumberName":"U-component_of_WINDS"},"data":[0,0,0,0,0,0,0,0,0,0,0,0,0,0,0,0,0,0,0,0,0,0,0,0,0,0,0,0,0,0,0,0,0,0,0,0,0,0,0,0,0,0,0,0,0,0,0,0,0,0,0,0,0,0,0,0,0,0,-1.6014,-1.6013,0,-1.5954,-1.5953,-1.5953,-1.5922,-1.5922,-1.5922,-1.5922,-1.5859,-1.5857,-1.5856,0,0,0,0,0,0,0,0,0,0,0,0,0,-1.61,-1.6099,-1.6014,-1.6013,-1.6012,-1.5954,-1.5953,-1.5952,-1.5922,-1.5922,-1.5922,-1.5922,-1.586,-1.5858,-1.5856,0,0,0,0,0,0,0,0,0,0,0,0,0,-1.6054,-1.6099,-1.6014,-1.599,-1.5988,-1.5954,-1.5953,-1.5952,-1.5922,-1.5922,-1.5922,-1.5922,-1.586,-1.5858,-1.5855,-1.584,0,0,-1.5848,-1.5847,0,0,0,0,0,0,0,0,-1.6057,-1.6051,-1.5995,-1.5992,-1.5989,-1.5946,-1.596,-1.5914,-1.5922,-1.5947,-1.5922,-1.5922,-1.5888,-1.5883,-1.5872,-1.5837,-1.5834,-1.5847,-1.5846,-1.5845,-1.5844,0,0,0,0,0,0,0,-1.606,-1.6053,-1.599,-1.5994,-1.599,-1.5982,-1.5976,-1.5952,-1.5918,-1.5945,-1.5943,-1.5936,-1.5886,-1.5874,-1.587,-1.5834,-1.5848,-1.5845,-1.5844,-1.5843,-1.5782,-1.5782,0,0,0,0,0,0,-1.6067,-1.6056,-1.5992,-1.5988,-1.6023,-1.5981,-1.5973,-1.5959,-1.5918,-1.5912,-1.5936,-1.5935,-1.5879,-1.5873,-1.5868,-1.5846,-1.5845,-1.5842,-1.5841,-1.5783,-1.5782,-1.5782,0,0,0,0,0,0,-1.6069,-1.6062,-1.5994,-1.6021,-1.6012,-1.5979,-1.5964,-1.5958,-1.5946,-1.5912,-1.5905,-1.593,-1.5878,-1.5871,-1.5847,-1.5844,-1.5841,-1.5839,-1.5783,-1.5783,-1.5782,-1.5805,0,0,0,0,0,0,-1.6072,-1.6063,-1.6057,-1.6022,-1.6011,-1.5976,-1.5964,-1.5957,-1.5942,-1.594,-1.5904,-1.5899,-1.5878,-1.5851,-1.5845,-1.584,-1.5837,-1.5783,-1.5783,-1.5782,-1.5804,-1.5805,-1.5806,0,0,0,0,0,-1.6075,-1.6065,-1.6057,-1.6049,-1.6003,-1.5976,-1.5969,-1.5946,-1.5942,-1.5936,-1.5914,-1.59,-1.5845,-1.5849,-1.5841,-1.5836,-1.5783,-1.5783,-1.5782,-1.5803,-1.5805,-1.5806,0,0,0,0,0,0,-1.6101,-1.606,-1.605,-1.6029,-1.6006,-1.5971,-1.5962,-1.5949,-1.5926,-1.5924,-1.5896,-1.5888,-1.5867,-1.5849,-1.5854,-1.5819,-1.5813,-1.5811,-1.5831,-1.5832,-1.5834,-1.5838,-1.5835,0,0,0,0,0,-1.6104,-1.6086,-1.6051,-1.6036,-1.6024,-1.5995,-1.5982,-1.5966,-1.5941,-1.5931,-1.5907,-1.5882,-1.5859,-1.5845,-1.5822,-1.5801,-1.5793,-1.5794,-1.5795,-1.5796,-1.5795,-1.5782,-1.5782,-1.5782,-1.5782,-1.5782,0,0,-1.6111,-1.6086,-1.6076,-1.604,-1.602,-1.6001,-1.5987,-1.5967,-1.5952,-1.5928,-1.5903,-1.5885,-1.5855,-1.5833,-1.5822,-1.5817,-1.5793,-1.5796,-1.5797,-1.5795,-1.5782,-1.5782,-1.5782,-1.5782,-1.5782,-1.5782,0,0,-1.6113,-1.6093,-1.6077,-1.6058,-1.6028,-1.6009,-1.6005,-1.5971,-1.5958,-1.5933,-1.5914,-1.5896,-1.5858,-1.5837,-1.5822,-1.5816,-1.5802,-1.5809,-1.5815,-1.5802,-1.5802,-1.5802,-1.5799,-1.5799,-1.5808,-1.5808,-1.5808,0,-1.6124,-1.6095,-1.6071,-1.6052,-1.6036,-1.6014,-1.5997,-1.5979,-1.5944,-1.5933,-1.5929,-1.588,-1.5859,-1.5831,-1.5829,-1.5818,-1.5812,-1.5813,-1.5804,-1.5804,-1.5803,-1.58,-1.5799,-1.5809,-1.5809,-1.5809,-1.5808,0,-1.611,-1.609,-1.6081,-1.6048,-1.6031,-1.6014,-1.5986,-1.5972,-1.5958,-1.5939,-1.5914,-1.5887,-1.5858,-1.5851,-1.5836,-1.582,-1.5819,-1.581,-1.5803,-1.5805,-1.5802,-1.58,-1.581,-1.581,-1.581,-1.5809,0,0,-1.6127,-1.608,-1.6077,-1.6061,-1.6027,-1.601,-1.5991,-1.5964,-1.5952,-1.5928,-1.5911,-1.5879,-1.5871,-1.5853,-1.5836,-1.5826,-1.5822,-1.5818,-1.5817,-1.5819,-1.5802,-1.5808,-1.5807,-1.5812,-1.5812,-1.5812,-1.5804,0,-1.6123,-1.6089,-1.6067,-1.6041,-1.6022,-1.6,-1.5983,-1.596,-1.5941,-1.5922,-1.5901,-1.5878,-1.587,-1.5859,-1.5847,-1.5825,-1.5818,-1.5825,-1.5795,-1.5795,-1.5803,-1.5805,-1.5812,-1.5806,-1.5802,-1.5802,-1.5802,0,-1.6115,-1.6091,-1.6064,-1.6031,-1.6022,-1.6008,-1.598,-1.5962,-1.5935,-1.5922,-1.5903,-1.5885,-1.5864,-1.5859,-1.5829,-1.5834,-1.5821,-1.5808,-1.5807,-1.5803,-1.5798,-1.5801,-1.5803,-1.5802,-1.58,-1.58,-1.58,0,-1.6129,-1.609,-1.6069,-1.6056,-1.6017,-1.6008,-1.5991,-1.5964,-1.5948,-1.5924,-1.5914,-1.5887,-1.5873,-1.5852,-1.5828,-1.5827,-1.58,-1.5793,-1.5788,-1.5789,-1.5783,-1.5783,-1.5783,-1.5775,-1.5775,-1.5775,-1.5775,0,-1.6127,-1.611,-1.6074,-1.6061,-1.6042,-1.6017,-1.5998,-1.598,-1.5956,-1.5938,-1.5917,-1.5901,-1.587,-1.585,-1.5831,-1.5808,-1.5802,-1.579,-1.5785,-1.5792,-1.5793,-1.5782,-1.5782,-1.5775,-1.5775,-1.5775,-1.5775,0,-1.6139,-1.6114,-1.6089,-1.6054,-1.6045,-1.6033,-1.6002,-1.5988,-1.5969,-1.5947,-1.594,-1.5909,-1.5884,-1.5858,-1.5824,-1.5811,-1.5789,-1.5782,-1.5798,-1.5795,-1.5791,-1.5792,-1.5783,-1.578,-1.5776,-1.5776,-1.5776,0,-1.6139,-1.6126,-1.609,-1.6076,-1.606,-1.6039,-1.6023,-1.5998,-1.5982,-1.595,-1.5939,-1.5913,-1.589,-1.5851,-1.5825,-1.5799,-1.5791,-1.579,-1.5787,-1.5794,-1.579,-1.5791,-1.579,-1.5791,-1.5791,-1.5791,-1.5791,0,-1.6141,-1.613,-1.6108,-1.6082,-1.6064,-1.6042,-1.6019,-1.6009,-1.5979,-1.5962,-1.5937,-1.5919,-1.5884,-1.5858,-1.5829,-1.5811,-1.5796,-1.5793,-1.579,-1.5796,-1.5806,-1.58,-1.58,-1.5793,-1.5793,-1.5793,-1.5792,-1.5792,-1.6147,-1.6134,-1.6106,-1.6083,-1.6063,-1.6042,-1.6027,-1.6006,-1.5984,-1.5954,-1.594,-1.5914,-1.5887,-1.5846,-1.5828,-1.5807,-1.5803,-1.5799,-1.5798,-1.5797,-1.5799,-1.581,-1.5802,-1.5802,-1.5802,-1.5802,-1.5802,0,-1.6147,-1.6129,-1.6107,-1.6076,-1.6057,-1.6045,-1.602,-1.6005,-1.5982,-1.5958,-1.5936,-1.5907,-1.5881,-1.5853,-1.5826,-1.5814,-1.5807,-1.5808,-1.5808,-1.5804,-1.5804,-1.5809,-1.5815,-1.5815,-1.5815,-1.5815,-1.5815,-1.5815,-1.6146,-1.6123,-1.6108,-1.6076,-1.6057,-1.6032,-1.6018,-1.5998,-1.5979,-1.5947,-1.5925,-1.5908,-1.5882,-1.5852,-1.5828,-1.5821,-1.5811,-1.5814,-1.5805,-1.5805,-1.5804,-1.5803,-1.5808,-1.5813,-1.5813,-1.5806,-1.5806,-1.5806]},{"header":{"parameterUnit":"m.s-1","parameterCategory":1,"la1":30.2991,"la2":30.254,"lo1":-89.0895,"lo2":-89.0444,"dy":0.0017,"dx":0.0017,"nx":28,"ny":28,"refTime":"2025-05-27T03:00:00:Z","depth":0,"parameterNumber":3,"parameterNumberName":"V-component_of_WINDS"},"data":[0,0,0,0,0,0,0,0,0,0,0,0,0,0,0,0,0,0,0,0,0,0,0,0,0,0,0,0,0,0,0,0,0,0,0,0,0,0,0,0,0,0,0,0,0,0,0,0,0,0,0,0,0,0,0,0,0,0,4.456,4.456,0,4.4583,4.4583,4.4583,4.4546,4.4544,4.4543,4.4542,4.4563,4.4564,4.4566,0,0,0,0,0,0,0,0,0,0,0,0,0,4.4479,4.4481,4.456,4.456,4.456,4.4583,4.4583,4.4584,4.4546,4.4544,4.4543,4.4541,4.4562,4.4564,4.4566,0,0,0,0,0,0,0,0,0,0,0,0,0,4.451,4.4482,4.456,4.4544,4.4543,4.4583,4.4583,4.4584,4.4546,4.4544,4.4542,4.4541,4.4561,4.4564,4.4567,4.4621,0,0,4.4575,4.4576,0,0,0,0,0,0,0,0,4.4508,4.4513,4.4546,4.4545,4.4544,4.4559,4.4563,4.4596,4.4547,4.4545,4.4542,4.454,4.4563,4.4565,4.4574,4.4622,4.4623,4.4575,4.4576,4.4578,4.4578,0,0,0,0,0,0,0,4.4506,4.4511,4.4569,4.4547,4.4546,4.4535,4.4537,4.4569,4.4564,4.4545,4.4542,4.4546,4.4562,4.4571,4.4574,4.4624,4.4575,4.4577,4.4579,4.458,4.4718,4.472,0,0,0,0,0,0,4.4506,4.451,4.4568,4.4569,4.4521,4.4538,4.4541,4.4556,4.4564,4.4563,4.4547,4.4544,4.4568,4.4571,4.4575,4.464,4.4578,4.458,4.4582,4.4716,4.4719,4.4721,0,0,0,0,0,0,4.4505,4.4512,4.4567,4.4539,4.4545,4.4542,4.456,4.4558,4.4567,4.4566,4.4565,4.4558,4.4566,4.4571,4.461,4.464,4.4581,4.4584,4.4714,4.4717,4.472,4.4771,0,0,0,0,0,0,4.4502,4.4511,4.4533,4.454,4.4547,4.4604,4.4562,4.456,4.4572,4.4568,4.4576,4.4575,4.4565,4.4607,4.4613,4.4643,4.4586,4.4711,4.4715,4.4719,4.4766,4.4775,4.4783,0,0,0,0,0,4.45,4.4546,4.4534,4.4542,4.4574,4.4605,4.4609,4.4598,4.4575,4.4596,4.4595,4.4575,4.4636,4.4611,4.4618,4.4649,4.4709,4.4714,4.4719,4.4763,4.4773,4.4782,0,0,0,0,0,0,4.4541,4.4546,4.4534,4.4584,4.4595,4.4599,4.4626,4.461,4.4627,4.4622,4.4607,4.4609,4.4651,4.4653,4.4626,4.4702,4.4668,4.4675,4.4699,4.471,4.4718,4.4716,4.4588,0,0,0,0,0,4.4557,4.4583,4.4585,4.4628,4.4635,4.4629,4.4642,4.4633,4.4643,4.4647,4.4649,4.4659,4.4681,4.4695,4.4714,4.4766,4.4767,4.479,4.4799,4.4805,4.4811,4.4839,4.4849,4.4737,4.4737,4.4737,0,0,4.4588,4.4594,4.4611,4.4637,4.4644,4.4671,4.4633,4.4663,4.4682,4.4651,4.4689,4.4691,4.4701,4.4747,4.4767,4.475,4.4842,4.4811,4.4817,4.4819,4.4845,4.4855,4.4865,4.474,4.4739,4.4739,0,0,4.4659,4.4666,4.4703,4.4711,4.4723,4.4719,4.4728,4.4735,4.4736,4.4773,4.4751,4.4773,4.481,4.4818,4.4827,4.4901,4.4883,4.4907,4.4951,4.4978,4.4987,4.4994,4.5021,4.5031,4.4913,4.4913,4.4913,0,4.4696,4.4736,4.4724,4.4755,4.4767,4.4742,4.4779,4.4787,4.4804,4.4813,4.4794,4.484,4.4845,4.4892,4.4911,4.4918,4.4928,4.4907,4.4986,4.4994,4.5001,4.5027,4.5037,4.4916,4.4916,4.4916,4.4915,0,4.4781,4.4809,4.4838,4.4857,4.4871,4.4906,4.4898,4.4914,4.4903,4.4901,4.494,4.4944,4.4965,4.4975,4.4964,4.5021,4.501,4.4989,4.4955,4.5015,4.5039,4.5048,4.4921,4.492,4.4919,4.4918,0,0,4.488,4.4891,4.4902,4.4911,4.4922,4.4943,4.4975,4.4996,4.501,4.5023,4.5049,4.5081,4.5062,4.5072,4.5062,4.5085,4.5144,4.5061,4.5061,4.5077,4.5207,4.5224,4.5236,4.5132,4.5133,4.5135,4.5207,0,4.4951,4.5009,4.4999,4.5054,4.508,4.5055,4.5084,4.5093,4.5092,4.5112,4.511,4.5133,4.5105,4.5111,4.5134,4.5132,4.517,4.5127,4.5156,4.5158,4.5156,4.5248,4.5266,4.5334,4.5216,4.5217,4.5219,0,4.5042,4.5059,4.5118,4.5125,4.5136,4.5161,4.518,4.52,4.5209,4.5207,4.5218,4.5203,4.5235,4.52,4.5243,4.5214,4.5225,4.5226,4.5228,4.5231,4.5192,4.5254,4.5355,4.5365,4.5233,4.5232,4.5231,0,4.5109,4.5147,4.5187,4.5194,4.5204,4.5222,4.5227,4.5235,4.5248,4.5263,4.5271,4.529,4.53,4.5314,4.5305,4.528,4.5349,4.5313,4.5348,4.5348,4.5364,4.5364,4.5469,4.537,4.537,4.537,4.537,0,4.519,4.5227,4.5217,4.5242,4.5282,4.5269,4.531,4.5311,4.5318,4.5342,4.5321,4.5344,4.5329,4.535,4.5342,4.5379,4.5384,4.5382,4.538,4.5385,4.5385,4.5393,4.5388,4.5373,4.5372,4.5371,4.5371,0,4.5273,4.5267,4.531,4.5315,4.5317,4.5347,4.5351,4.5373,4.537,4.5401,4.5407,4.5402,4.5426,4.5417,4.5442,4.5437,4.5484,4.5475,4.5482,4.548,4.5515,4.5512,4.563,4.5645,4.5535,4.5536,4.5537,0,4.5326,4.5354,4.5362,4.5378,4.5384,4.5408,4.5422,4.5409,4.5424,4.5437,4.5458,4.548,4.5498,4.5537,4.5535,4.5554,4.5546,4.5585,4.5548,4.5553,4.5547,4.5546,4.5549,4.5593,4.5595,4.5596,4.5596,0,4.542,4.5416,4.5437,4.5457,4.5474,4.5489,4.5502,4.5515,4.5504,4.5521,4.5546,4.5559,4.5585,4.5608,4.5625,4.5628,4.5611,4.5608,4.5617,4.5623,4.5626,4.5626,4.5503,4.5606,4.5605,4.5604,4.5603,4.5603,4.549,4.5514,4.5524,4.5548,4.5557,4.5569,4.5591,4.5591,4.5611,4.5632,4.5623,4.5652,4.566,4.5681,4.5687,4.5709,4.5693,4.5706,4.571,4.5714,4.5719,4.5622,4.5712,4.5711,4.5711,4.5711,4.5711,0,4.5585,4.559,4.5612,4.5631,4.565,4.5632,4.5645,4.5662,4.5687,4.5697,4.5715,4.5743,4.5764,4.5764,4.5783,4.5801,4.5793,4.5806,4.5806,4.5807,4.5731,4.5721,4.5812,4.5812,4.5812,4.5812,4.5812,4.5812,4.5636,4.5676,4.5673,4.5716,4.5721,4.575,4.5759,4.577,4.5777,4.581,4.5828,4.5828,4.5833,4.5853,4.5872,4.5871,4.588,4.5896,4.5893,4.5822,4.5812,4.5802,4.5793,4.5898,4.5898,4.5967,4.5967,4.5968]}]]